Location: *
(50.8667°S, 179.2667°W)
Time: 18:23:58
(UTC+00:00)

CENTAUR R/B - Pass Details

Date: 02 October 2023
Orbit: 693 x 1493 km, 63.4° (Epoch: 07 December)

Event Time Altitude Azimuth Distance (km) Brightness Sun altitude
Exits shadow 13:58:59 64° 351° (N) 1,313 2.8 -28.6°
Maximum altitude 14:00:11 76° 50° (NE) 1,202 2.8 -28.5°
Drops below altitude 10° 14:06:53 10° 134° (SE) 2,801 5.9 -27.8°
Sets 14:09:15 0° 135° (SE) 3,648 6.8 -27.6°
